Time,TemperatureF,DewpointF,PressureIn,WindDirection,WindDirectionDegrees,WindSpeedMPH,WindSpeedGustMPH,Humidity,HourlyPrecipIn,Conditions,Clouds,dailyrainin,SoftwareType,DateUTC
2013-11-08 00:23:00,47.0,45.0,-100.00,North,-999,-999.0,-999.0,94,0.00,,,0.00,,2013-11-08 06:23:00,
2013-11-08 00:52:00,47.0,46.0,-100.00,North,-999,-999.0,-999.0,97,0.00,,,0.00,,2013-11-08 06:52:00,
2013-11-08 01:21:00,47.0,46.0,-100.00,North,-999,-999.0,-999.0,99,0.00,,,0.00,,2013-11-08 07:21:00,
2013-11-08 01:52:00,46.0,46.0,-100.00,North,-999,-999.0,-999.0,99,0.00,,,-99.99,,2013-11-08 07:52:00,
2013-11-08 02:22:00,46.0,46.0,-100.00,North,-999,-999.0,-999.0,99,0.00,,,0.00,,2013-11-08 08:22:00,
2013-11-08 02:52:00,45.0,45.0,-100.00,North,-999,-999.0,-999.0,99,0.00,,,-99.99,,2013-11-08 08:52:00,
2013-11-08 03:22:00,45.0,45.0,-100.00,North,-999,-999.0,-999.0,100,0.00,,,-99.99,,2013-11-08 09:22:00,
2013-11-08 03:53:00,44.0,44.0,-100.00,North,-999,-999.0,-999.0,100,0.00,,,0.00,,2013-11-08 09:53:00,
2013-11-08 04:23:00,45.0,45.0,-100.00,North,-999,-999.0,-999.0,100,0.00,,,0.00,,2013-11-08 10:23:00,
2013-11-08 04:33:00,45.0,45.0,-100.00,North,-999,-999.0,-999.0,100,0.00,,,0.00,,2013-11-08 10:33:00,
2013-11-08 04:42:00,45.0,45.0,-100.00,North,-999,-999.0,-999.0,100,0.00,,,0.00,,2013-11-08 10:42:00,
2013-11-08 04:53:00,45.0,45.0,-100.00,North,-999,-999.0,-999.0,100,0.00,,,0.00,,2013-11-08 10:53:00,
2013-11-08 05:22:00,44.0,44.0,-100.00,North,-999,-999.0,-999.0,100,0.00,,,0.00,,2013-11-08 11:22:00,
2013-11-08 05:33:00,44.0,44.0,-100.00,North,-999,-999.0,-999.0,100,0.00,,,0.00,,2013-11-08 11:33:00,
2013-11-08 05:42:00,44.0,44.0,-100.00,North,-999,-999.0,-999.0,100,0.00,,,0.00,,2013-11-08 11:42:00,
2013-11-08 05:52:00,44.0,44.0,-100.00,North,-999,-999.0,-999.0,100,0.00,,,0.00,,2013-11-08 11:52:00,
2013-11-08 06:21:00,42.0,42.0,-100.00,North,-999,-999.0,-999.0,100,0.00,,,0.00,,2013-11-08 12:21:00,
2013-11-08 06:52:00,42.0,42.0,-100.00,North,-999,-999.0,-999.0,100,0.00,,,0.00,,2013-11-08 12:52:00,
2013-11-08 07:21:00,43.0,43.0,-100.00,North,-999,-999.0,-999.0,100,0.00,,,0.00,,2013-11-08 13:21:00,
2013-11-08 07:40:00,43.0,43.0,-100.00,North,-999,-999.0,-999.0,100,0.00,,,0.00,,2013-11-08 13:40:00,
2013-11-08 07:52:00,43.0,43.0,-100.00,North,-999,-999.0,-999.0,100,0.00,,,0.00,,2013-11-08 13:52:00,
2013-11-08 08:11:00,43.0,43.0,-100.00,North,-999,-999.0,-999.0,100,0.00,,,0.00,,2013-11-08 14:11:00,
2013-11-08 08:21:00,43.0,43.0,-100.00,North,-999,-999.0,-999.0,100,0.00,,,0.00,,2013-11-08 14:21:00,
2013-11-08 08:32:00,43.0,43.0,-100.00,North,-999,-999.0,-999.0,100,0.00,,,0.00,,2013-11-08 14:32:00,
2013-11-08 09:22:00,48.0,47.0,-100.00,North,-999,-999.0,-999.0,96,-99.99,,,0.00,,2013-11-08 15:22:00,
2013-11-08 09:53:00,51.0,45.0,-100.00,North,-999,-999.0,-999.0,81,0.00,,,0.00,,2013-11-08 15:53:00,
2013-11-08 10:23:00,54.0,43.0,-100.00,North,-999,-999.0,-999.0,66,0.00,,,0.00,,2013-11-08 16:23:00,
2013-11-08 10:53:00,55.0,38.0,-100.00,North,-999,-999.0,-999.0,53,0.00,,,0.00,,2013-11-08 16:53:00,
2013-11-08 11:22:00,57.0,35.0,-100.00,North,-999,-999.0,-999.0,43,0.00,,,0.00,,2013-11-08 17:22:00,
2013-11-08 11:52:00,59.0,31.0,-100.00,North,-999,-999.0,-999.0,35,0.00,,,0.00,,2013-11-08 17:52:00,
2013-11-08 12:22:00,61.0,31.0,-100.00,North,-999,-999.0,-999.0,32,0.00,,,0.00,,2013-11-08 18:22:00,
2013-11-08 12:52:00,61.0,32.0,-100.00,North,-999,-999.0,-999.0,34,0.00,,,0.00,,2013-11-08 18:52:00,
2013-11-08 13:22:00,62.0,31.0,-100.00,North,-999,-999.0,-999.0,31,0.00,,,0.00,,2013-11-08 19:22:00,
2013-11-08 13:52:00,62.0,32.0,-100.00,North,-999,-999.0,-999.0,32,0.00,,,0.00,,2013-11-08 19:52:00,
2013-11-08 14:22:00,62.0,33.0,-100.00,North,-999,-999.0,-999.0,34,0.00,,,0.00,,2013-11-08 20:22:00,
2013-11-08 14:52:00,62.0,32.0,-100.00,North,-999,-999.0,-999.0,32,0.00,,,0.00,,2013-11-08 20:52:00,
2013-11-08 15:22:00,63.0,31.0,-100.00,North,-999,-999.0,-999.0,30,0.00,,,0.00,,2013-11-08 21:22:00,
2013-11-08 15:54:00,63.0,31.0,-100.00,North,-999,-999.0,-999.0,31,0.00,,,0.00,,2013-11-08 21:54:00,
2013-11-08 16:23:00,61.0,29.0,-100.00,North,-999,-999.0,-999.0,30,0.00,,,0.00,,2013-11-08 22:23:00,
2013-11-08 16:53:00,61.0,29.0,-100.00,North,-999,-999.0,-999.0,31,0.00,,,0.00,,2013-11-08 22:53:00,
2013-11-08 17:22:00,60.0,32.0,-100.00,North,-999,-999.0,-999.0,36,0.00,,,-99.99,,2013-11-08 23:22:00,
2013-11-08 17:53:00,59.0,40.0,-100.00,North,-999,-999.0,-999.0,49,0.00,,,0.00,,2013-11-08 23:53:00,
2013-11-08 18:22:00,57.0,40.0,-100.00,North,-999,-999.0,-999.0,53,0.00,,,0.00,,2013-11-09 00:22:00,
2013-11-08 18:41:00,56.0,39.0,-100.00,North,-999,-999.0,-999.0,53,0.00,,,0.00,,2013-11-09 00:41:00,
2013-11-08 18:52:00,56.0,41.0,-100.00,North,-999,-999.0,-999.0,57,0.00,,,0.00,,2013-11-09 00:52:00,
2013-11-08 19:11:00,56.0,39.0,-100.00,North,-999,-999.0,-999.0,53,0.00,,,0.00,,2013-11-09 01:11:00,
2013-11-08 19:22:00,56.0,39.0,-100.00,North,-999,-999.0,-999.0,53,0.00,,,0.00,,2013-11-09 01:22:00,
2013-11-08 19:32:00,56.0,39.0,-100.00,North,-999,-999.0,-999.0,53,0.00,,,0.00,,2013-11-09 01:32:00,
2013-11-08 20:52:00,54.0,42.0,-100.00,North,-999,-999.0,-999.0,65,-99.99,,,0.00,,2013-11-09 02:52:00,
2013-11-08 21:22:00,54.0,47.0,-100.00,North,-999,-999.0,-999.0,77,-99.99,,,0.00,,2013-11-09 03:22:00,
2013-11-08 21:54:00,53.0,46.0,-100.00,North,-999,-999.0,-999.0,77,0.00,,,0.00,,2013-11-09 03:54:00,
2013-11-08 22:04:00,53.0,46.0,-100.00,North,-999,-999.0,-999.0,77,0.00,,,0.00,,2013-11-09 04:04:00,
2013-11-08 22:13:00,53.0,46.0,-100.00,North,-999,-999.0,-999.0,77,0.00,,,0.00,,2013-11-09 04:13:00,
2013-11-08 22:23:00,53.0,46.0,-100.00,North,-999,-999.0,-999.0,77,0.00,,,0.00,,2013-11-09 04:23:00,
2013-11-08 23:13:00,53.0,49.0,-100.00,North,-999,-999.0,-999.0,88,-99.99,,,0.00,,2013-11-09 05:13:00,
2013-11-08 23:23:00,53.0,49.0,-100.00,North,-999,-999.0,-999.0,88,-99.99,,,0.00,,2013-11-09 05:23:00,
2013-11-08 23:53:00,52.0,51.0,-100.00,North,-999,-999.0,-999.0,96,0.00,,,0.00,,2013-11-09 05:53:00,